Tracking 20942 objects as of 13-Jul-2020
HD Live streaming from Space Station
objects crossing your sky now

THOR ABLESTAR DEB

Track THOR ABLESTAR DEB now!
10-day predictions


NORAD ID: 410
Int'l Code: 1961-015EK
Perigee: 972.7 km
Apogee: 997.0 km
Inclination: 66.7 °
Period: 104.6 minutes
Semi major axis: 7355 km
RCS: 0.1102 m2 (medium)
Launch date: June 29, 1961
Source: United States (US)
Launch site: AIR FORCE EASTERN TEST RANGE (AFETR)

Note: This is SATELLITE DEBRIS
aabbcc
Your satellite tracking list
Your tracking list is empty




NASA's NSSDC Master Catalog

Two Line Element Set (TLE):
1   410U 61015EK  20194.04352443 -.00000049 +00000-0 +26177-4 0  9990
2   410 066.6914 181.9337 0016536 331.3932 086.9019 13.76116300961979
Source of the keplerian elements: AFSPC